Change the Weather History Date:

Friday, October 26, 2012

  Actual Average Record
Temperature  
Mean Temperature 30 °F -  
Max Temperature 33 °F 51 °F 80 °F (1989)
Min Temperature 26 °F 30 °F 12 °F (1976)
Degree Days  
Heating Degree Days 36    
Moisture  
Dew Point 21 °F    
Average Humidity 70    
Maximum Humidity 93    
Minimum Humidity 55    
Precipitation  
Precipitation 0.00 in - - ()
Sea Level Pressure  
Sea Level Pressure 30.20 in    
Wind  
Wind Speed 16 mph (West)    
Max Wind Speed 24 mph    
Max Gust Speed 30 mph    
Visibility 10 miles    
Events Snow    
Averages and records for this station are not official NWS values.
T = Trace of Precipitation, MM = Missing Value Source: NWS Daily Summary

Daily Weather History Graph

Daily Weather History Graph

Search for Another Location

Airport or City:

Trip Planner

Search our weather history database for the weather conditions in past years. The results will help you decide how hot, cold, wet, or windy it might be!

Date:

Astronomy

Oct. 26, 2012 Rise Set
Actual Time 7:58 AM CDT 6:14 PM CDT
Civil Twilight 7:27 AM CDT 6:46 PM CDT
Nautical Twilight 6:50 AM CDT 7:22 PM CDT
Astronomical Twilight 6:15 AM CDT 7:57 PM CDT
Moon 4:39 PM CDT (10/26) 4:45 AM CDT (10/26)
Length of Visible Light 11h 19m
Length of Day
10h 15m
Waxing Gibbous, 91% of the Moon is Illuminated
Oct 26
Waxing Gibbous
Oct 29
Full
Nov 6
Last Quarter
Nov 13
New
Nov 20
First Quarter

Hourly Weather History & Observations

Time (CDT) Temp. Windchill Dew Point Humidity Pressure Visibility Wind Dir Wind Speed Gust Speed Precip Events Conditions
12:15 AM 32.0 °F 20.1 °F 26.6 °F 80% 30.06 in 10.0 mi West 19.6 mph 24.2 mph N/A   Overcast
12:35 AM 32.0 °F 20.1 °F 26.6 °F 80% 30.06 in 10.0 mi West 19.6 mph 24.2 mph N/A   Overcast
12:55 AM 32.0 °F 19.2 °F 24.8 °F 75% 30.07 in 10.0 mi West 23.0 mph 26.5 mph N/A   Overcast
1:15 AM 32.0 °F 22.1 °F 26.6 °F 80% 30.08 in 10.0 mi West 13.8 mph 25.3 mph N/A   Overcast
1:35 AM 32.0 °F 20.5 °F 26.6 °F 80% 30.08 in 10.0 mi West 18.4 mph 24.2 mph N/A   Overcast
1:55 AM 30.2 °F 16.5 °F 24.8 °F 80% 30.09 in 10.0 mi West 24.2 mph 29.9 mph N/A   Overcast
2:15 AM 30.2 °F 17.1 °F 24.8 °F 80% 30.10 in 10.0 mi West 21.9 mph 29.9 mph N/A   Overcast
2:35 AM 30.2 °F 17.1 °F 24.8 °F 80% 30.10 in 10.0 mi West 21.9 mph 28.8 mph N/A   Overcast
2:55 AM 30.2 °F 17.8 °F 24.8 °F 80% 30.11 in 10.0 mi West 19.6 mph 28.8 mph N/A   Overcast
3:15 AM 30.2 °F 18.1 °F 23.0 °F 75% 30.12 in 10.0 mi West 18.4 mph 25.3 mph N/A   Overcast
3:35 AM 30.2 °F 18.1 °F 23.0 °F 75% 30.12 in 10.0 mi West 18.4 mph 25.3 mph N/A   Overcast
3:55 AM 30.2 °F 17.8 °F 23.0 °F 75% 30.12 in 10.0 mi West 19.6 mph 24.2 mph N/A   Overcast
4:15 AM 30.2 °F 19.3 °F 24.8 °F 80% 30.13 in 10.0 mi West 15.0 mph 21.9 mph N/A   Overcast
4:35 AM 30.2 °F 18.9 °F 23.0 °F 75% 30.13 in 10.0 mi West 16.1 mph - N/A   Overcast
4:55 AM 30.2 °F 18.1 °F 21.2 °F 69% 30.14 in 10.0 mi West 18.4 mph 23.0 mph N/A   Overcast
5:15 AM 30.2 °F 18.5 °F 21.2 °F 69% 30.14 in 10.0 mi West 17.3 mph 23.0 mph N/A   Overcast
5:35 AM 30.2 °F 19.3 °F 21.2 °F 69% 30.15 in 10.0 mi West 15.0 mph - N/A   Overcast
5:55 AM 30.2 °F 19.3 °F 23.0 °F 75% 30.16 in 10.0 mi West 15.0 mph 19.6 mph N/A   Overcast
6:15 AM 28.4 °F 15.8 °F 21.2 °F 74% 30.16 in 10.0 mi West 18.4 mph - N/A   Scattered Clouds
6:35 AM 28.4 °F 15.4 °F 19.4 °F 69% 30.17 in 10.0 mi West 19.6 mph 29.9 mph N/A   Clear
6:55 AM 28.4 °F 15.8 °F 19.4 °F 69% 30.18 in 10.0 mi West 18.4 mph 26.5 mph N/A   Clear
7:15 AM 26.6 °F 13.4 °F 21.2 °F 80% 30.19 in 10.0 mi West 18.4 mph 23.0 mph N/A   Clear
7:55 AM 28.4 °F 16.6 °F 19.4 °F 69% 30.20 in 10.0 mi WNW 16.1 mph - N/A   Overcast
8:55 AM 26.6 °F 14.3 °F 19.4 °F 74% 30.22 in 10.0 mi WNW 16.1 mph 24.2 mph N/A   Overcast
9:15 AM 26.6 °F 12.0 °F 19.4 °F 74% 30.22 in 10.0 mi West 23.0 mph 27.6 mph N/A   Overcast
9:35 AM 26.6 °F 13.8 °F 19.4 °F 74% 30.23 in 10.0 mi West 17.3 mph 23.0 mph N/A Snow Light Snow
9:55 AM 26.6 °F 14.3 °F 19.4 °F 74% 30.23 in 10.0 mi WNW 16.1 mph 20.7 mph N/A Snow Light Snow
10:15 AM 28.4 °F 18.0 °F 21.2 °F 74% 30.23 in 10.0 mi West 12.7 mph 23.0 mph N/A Snow Light Snow
10:35 AM 28.4 °F 17.5 °F 21.2 °F 74% 30.23 in 10.0 mi West 13.8 mph - N/A   Mostly Cloudy
10:55 AM 30.2 °F 19.8 °F 21.2 °F 69% 30.23 in 10.0 mi West 13.8 mph - N/A   Mostly Cloudy
11:15 AM 30.2 °F 18.1 °F 19.4 °F 64% 30.23 in 10.0 mi West 18.4 mph 24.2 mph N/A   Mostly Cloudy
11:35 AM 30.2 °F 18.5 °F 19.4 °F 64% 30.24 in 10.0 mi West 17.3 mph 25.3 mph N/A   Overcast
11:55 AM 30.2 °F 19.3 °F 19.4 °F 64% 30.24 in 10.0 mi West 15.0 mph - N/A   Overcast
12:15 PM 30.2 °F 19.3 °F 21.2 °F 69% 30.24 in 10.0 mi WSW 15.0 mph 18.4 mph N/A   Overcast
12:35 PM 32.0 °F 21.2 °F 21.2 °F 64% 30.24 in 10.0 mi West 16.1 mph 25.3 mph N/A   Overcast
12:55 PM 32.0 °F 20.5 °F 21.2 °F 64% 30.24 in 10.0 mi West 18.4 mph 23.0 mph N/A   Overcast
1:15 PM 33.8 °F 22.8 °F 19.4 °F 56% 30.24 in 10.0 mi West 18.4 mph 23.0 mph N/A   Mostly Cloudy
1:35 PM 30.2 °F 18.1 °F 19.4 °F 64% 30.24 in 10.0 mi West 18.4 mph 21.9 mph N/A   Overcast
1:55 PM 32.0 °F 20.5 °F 19.4 °F 60% 30.24 in 7.0 mi WSW 18.4 mph 21.9 mph N/A   Overcast
2:15 PM 32.0 °F 21.2 °F 19.4 °F 60% 30.23 in 7.0 mi West 16.1 mph 21.9 mph N/A   Overcast
2:35 PM 32.0 °F 21.6 °F 17.6 °F 55% 30.23 in 10.0 mi West 15.0 mph - N/A   Overcast
2:55 PM 32.0 °F 23.0 °F 17.6 °F 55% 30.23 in 10.0 mi West 11.5 mph 19.6 mph N/A   Overcast
3:15 PM 32.0 °F 22.1 °F 19.4 °F 60% 30.23 in 10.0 mi West 13.8 mph 21.9 mph N/A   Overcast
3:35 PM 30.2 °F 18.9 °F 17.6 °F 60% 30.23 in 10.0 mi West 16.1 mph 20.7 mph N/A   Overcast
3:55 PM 33.8 °F 22.8 °F 19.4 °F 56% 30.24 in 10.0 mi West 18.4 mph 23.0 mph N/A   Overcast
4:15 PM 32.0 °F 20.8 °F 17.6 °F 55% 30.24 in 10.0 mi West 17.3 mph 23.0 mph N/A   Overcast
4:35 PM 30.2 °F 18.9 °F 19.4 °F 64% 30.24 in 10.0 mi West 16.1 mph 21.9 mph N/A   Overcast
4:55 PM 30.2 °F 19.8 °F 17.6 °F 60% 30.24 in 10.0 mi West 13.8 mph - N/A   Overcast
5:15 PM 30.2 °F 20.8 °F 17.6 °F 60% 30.24 in 10.0 mi West 11.5 mph 17.3 mph N/A   Overcast
5:35 PM 30.2 °F 21.9 °F 17.6 °F 60% 30.24 in 10.0 mi West 9.2 mph - N/A   Mostly Cloudy
5:55 PM 30.2 °F 20.8 °F 17.6 °F 60% 30.24 in 10.0 mi West 11.5 mph 16.1 mph N/A   Mostly Cloudy
6:15 PM 30.2 °F 20.8 °F 19.4 °F 64% 30.25 in 10.0 mi WNW 11.5 mph 16.1 mph N/A   Overcast
6:35 PM 30.2 °F 21.3 °F 19.4 °F 64% 30.25 in 7.0 mi West 10.4 mph - N/A Snow Light Snow
6:55 PM 28.4 °F - 19.4 °F 69% 30.26 in 10.0 mi Calm Calm - N/A   Overcast
7:15 PM 28.4 °F - 19.4 °F 69% 30.25 in 10.0 mi Calm Calm - N/A   Overcast
7:35 PM 28.4 °F - 19.4 °F 69% 30.25 in 10.0 mi Calm Calm - N/A   Overcast
7:55 PM 28.4 °F - 19.4 °F 69% 30.25 in 10.0 mi Calm Calm - N/A   Overcast
8:16 PM 28.4 °F - 19.4 °F 69% 30.25 in 10.0 mi Calm Calm - N/A   Overcast
8:35 PM 28.4 °F 22.2 °F 19.4 °F 69% 30.25 in 10.0 mi SW 5.8 mph - N/A   Overcast
8:55 PM 28.4 °F 21.2 °F 21.2 °F 74% 30.25 in 10.0 mi SW 6.9 mph - N/A   Overcast
9:16 PM 28.4 °F - 21.2 °F 74% 30.25 in 10.0 mi Calm Calm - N/A   Overcast
9:35 PM 28.4 °F 19.7 °F 21.2 °F 74% 30.25 in 10.0 mi WSW 9.2 mph - N/A   Overcast
9:55 PM 28.4 °F 19.7 °F 21.2 °F 74% 30.25 in 10.0 mi WSW 9.2 mph - N/A   Overcast
10:15 PM 28.4 °F 19.7 °F 21.2 °F 74% 30.25 in 10.0 mi West 9.2 mph - N/A   Overcast
10:35 PM 28.4 °F 22.2 °F 23.0 °F 80% 30.25 in 10.0 mi WSW 5.8 mph - N/A   Overcast
10:55 PM 28.4 °F - 24.8 °F 86% 30.25 in 10.0 mi Calm Calm - N/A   Overcast
11:35 PM 26.6 °F - 24.8 °F 93% 30.24 in 10.0 mi Calm Calm - N/A   Overcast
11:55 PM 26.6 °F 20.0 °F 24.8 °F 93% 30.24 in 10.0 mi WSW 5.8 mph - N/A   Overcast